TimeEST,TemperatureF,Dew PointF,Humidity,Sea Level PressureIn,VisibilityMPH,Wind Direction,Wind SpeedMPH,Gust SpeedMPH,PrecipitationIn,Events,Conditions,WindDirDegrees,DateUTC
12:53 AM,63.0,63.0,100,30.15,-9999.0,Calm,Calm,-,N/A,,Unknown,0,2013-12-07 05:53:00
1:53 AM,62.1,61.0,96,30.15,-9999.0,Calm,Calm,-,N/A,,Unknown,0,2013-12-07 06:53:00
2:53 AM,59.0,59.0,100,30.15,-9999.0,Calm,Calm,-,N/A,,Unknown,0,2013-12-07 07:53:00
3:53 AM,59.0,59.0,100,30.15,-9999.0,Calm,Calm,-,N/A,,Unknown,0,2013-12-07 08:53:00
4:53 AM,62.1,62.1,100,30.16,-9999.0,Calm,Calm,-,N/A,,Unknown,0,2013-12-07 09:53:00
5:53 AM,64.0,64.0,100,30.17,-9999.0,SSE,3.5,-,N/A,,Unknown,160,2013-12-07 10:53:00
6:53 AM,66.0,66.0,100,30.19,-9999.0,SSE,4.6,-,0.01,,Unknown,160,2013-12-07 11:53:00
7:53 AM,66.9,66.9,100,30.20,-9999.0,SSE,4.6,-,N/A,,Unknown,160,2013-12-07 12:53:00
8:53 AM,69.1,69.1,100,30.22,-9999.0,South,5.8,-,N/A,,Unknown,180,2013-12-07 13:53:00
9:53 AM,71.1,71.1,100,30.23,-9999.0,SSW,5.8,-,N/A,,Unknown,200,2013-12-07 14:53:00
10:53 AM,77.0,71.1,82,30.23,-9999.0,SW,8.1,-,N/A,,Unknown,220,2013-12-07 15:53:00
11:53 AM,80.1,69.1,69,30.21,-9999.0,SW,6.9,-,N/A,,Unknown,230,2013-12-07 16:53:00
12:53 PM,81.0,69.1,67,30.19,-9999.0,SW,8.1,-,N/A,,Unknown,230,2013-12-07 17:53:00
1:53 PM,80.1,68.0,67,30.17,-9999.0,SSW,9.2,-,N/A,,Unknown,210,2013-12-07 18:53:00
2:53 PM,80.1,68.0,67,30.16,-9999.0,SW,10.4,-,N/A,,Unknown,230,2013-12-07 19:53:00
3:53 PM,78.1,66.9,68,30.16,-9999.0,SW,8.1,-,N/A,,Unknown,230,2013-12-07 20:53:00
4:53 PM,75.9,66.9,74,30.17,-9999.0,SW,4.6,-,N/A,,Unknown,220,2013-12-07 21:53:00
5:53 PM,71.1,66.0,84,30.17,-9999.0,SSW,4.6,-,0.01,,Unknown,200,2013-12-07 22:53:00
6:53 PM,66.9,64.0,90,30.19,-9999.0,Calm,Calm,-,N/A,,Unknown,0,2013-12-07 23:53:00
7:53 PM,64.9,63.0,93,30.19,-9999.0,Calm,Calm,-,N/A,,Unknown,0,2013-12-08 00:53:00
8:53 PM,63.0,62.1,97,30.20,-9999.0,Calm,Calm,-,N/A,,Unknown,0,2013-12-08 01:53:00
9:53 PM,61.0,60.1,97,30.21,-9999.0,Calm,Calm,-,N/A,,Unknown,0,2013-12-08 02:53:00
10:53 PM,61.0,60.1,97,30.21,-9999.0,Calm,Calm,-,N/A,,Unknown,0,2013-12-08 03:53:00
11:53 PM,62.1,61.0,96,30.21,-9999.0,Calm,Calm,-,N/A,,Unknown,0,2013-12-08 04:53:00